This demonstration page uses our WeatherBlox Daily Observations layout. Learn more.

Left ArrowRight Arrow

41.12389, -100.76542

Hourly Observations for January 29, 2018

Temp ( °F °C ) Dew Point ( °F °C ) Humidity (%) Winds ( mph kmh ) Pressure ( in mb ) Visibility ( mi km ) Precip ( " mm )
12:53 am 00:53 Cloudy 15 -9.4 11 -11.7 84 84 Calm 30.68 1039 10 16 0.00 0.00
1:53 am 01:53 Cloudy 16 -8.9 12 -11.1 84 84 Calm 30.67 1039 10 16 0.00 0.00
2:53 am 02:53 Cloudy 18 -7.8 13 -10.6 81 81 Calm 30.65 1038 10 16 0.00 0.00
3:53 am 03:53 Cloudy 18 -7.8 13 -10.6 81 81 Calm 30.63 1037 10 16 0.00 0.00
4:53 am 04:53 Cloudy 19 -7.2 14 -10 81 81 SSE 3 6 30.60 1036 10 16 0.00 0.00
5:53 am 05:53 Cloudy 19 -7.2 14 -10 81 81 Calm 30.60 1036 10 16 0.00 0.00
6:53 am 06:53 Cloudy 18 -7.8 13 -10.6 81 81 ESE 6 9 30.60 1036 10 16 0.00 0.00
7:53 am 07:53 Cloudy 18 -7.8 14 -10 84 84 SE 6 9 30.60 1036 10 16 0.00 0.00
8:53 am 08:53 Cloudy 19 -7.2 15 -9.4 84 84 ESE 8 13 30.60 1036 10 16 0.00 0.00
9:53 am 09:53 Cloudy 22 -5.6 16 -8.9 78 78 ESE 5 7 30.59 1036 10 16 0.00 0.00
10:53 am 10:53 Cloudy 25 -3.9 17 -8.3 72 72 SSE 5 7 30.58 1036 10 16 0.00 0.00
11:53 am 11:53 Cloudy 27 -2.8 19 -7.2 72 72 S 5 7 30.56 1035 10 16 0.00 0.00
12:53 pm 12:53 Cloudy 29 -1.7 20 -6.7 69 69 SSE 5 7 30.51 1033 10 16 0.00 0.00
1:53 pm 13:53 Cloudy 30 -1.1 22 -5.6 72 72 SSW 9 15 30.47 1032 10 16 0.00 0.00
2:53 pm 14:53 Cloudy 31 -0.6 23 -5 72 72 S 12 19 30.44 1031 10 16 0.00 0.00
3:53 pm 15:53 Cloudy 31 -0.6 23 -5 72 72 S 9 15 30.43 1031 10 16 0.00 0.00
4:53 pm 16:53 Sunny 32 0 24 -4.4 73 73 S 5 7 30.41 1030 10 16 0.00 0.00
5:53 pm 17:53 Cloudy 32 0 25 -3.9 75 75 Calm 30.40 1030 10 16 0.00 0.00
6:53 pm 18:53 Cloudy 31 -0.6 24 -4.4 76 76 SE 8 13 30.41 1030 10 16 0.00 0.00
7:53 pm 19:53 Mostly Cloudy 29 -1.7 23 -5 78 78 ESE 8 13 30.40 1030 10 16 0.00 0.00
8:53 pm 20:53 Clear 25 -3.9 21 -6.1 85 85 ESE 6 9 30.40 1029 10 16 0.00 0.00
9:53 pm 21:53 Clear 24 -4.4 19 -7.2 81 81 ESE 8 13 30.39 1029 10 16 0.00 0.00
10:53 pm 22:53 Mostly Cloudy 22 -5.6 17 -8.3 82 82 E 7 11 30.36 1028 10 16 0.00 0.00
11:53 pm 23:53 Clear 20 -6.7 16 -8.9 85 85 Calm 30.33 1027 10 16 0.00 0.00

Powered by AerisWeather